{"data":{"norad_id":47302,"epoch":"2026-05-25T04:23:32.672256Z","epoch_age_seconds":49338,"freshness":"FRESH","line1":"1 47302U 20103A   26145.18301704  .00000329  00000+0  79802-4 0  9997","line2":"2 47302  98.0448  27.4949 0002655 182.2244 177.8944 14.58858628287953","mean_motion":14.58858628,"eccentricity":0.0002655,"inclination_deg":98.0448,"raan_deg":27.4949,"arg_perigee_deg":182.2244,"mean_anomaly_deg":177.8944,"bstar":7.9802e-5,"rev_number":28795,"period_min":98.707302569417,"perigee_km":694.98336550021,"apogee_km":698.74018985116,"semimajor_km":7074.9987776757,"source":"CELESTRAK","updated_at":"2026-05-25T13:37:56.433829Z"}}